Track ONEWEB-0311 now! 10-day predictions ONEWEB-0311 is classified as:
1 49097U 21075Y 22140.58334491 -.00044573 00000-0 -11536+0 0 9990 2 49097 87.9053 301.8018 0002220 104.3675 167.3704 13.17669697 1303